125  
FPUS83 KFGF 191031  
OPUFGF  
PRAIRIE TO PINES WEATHER ROUNDUP  
NATIONAL WEATHER SERVICE EASTERN NORTH DAKOTA/GRAND FORKS ND  
500 AM CDT FRI JUL 19 2019  
 
**SATELLITE DATA USED TO AUGMENT SKY COVER AT AUTOMATED STATIONS**  
***** WEATHER ACROSS EASTERN NORTH DAKOTA *****  
 
CITY SKY/WX TMP DP RH WIND PRES REMARKS  
GRAND FORKS FAIR 65 60 84 S9 29.60S  
GRND FORKS AFB CLOUDY 67 60 78 SW8 29.61S  
GRND FORKS NWS N/A 67 62 85 SW5 29.57S  
BUXTON N/A 67 66 97 S3 N/A  
DEVILS LAKE LGT RAIN 72 63 73 SW17 29.65R  
FARGO FAIR 68 63 84 S5 29.65R  
WAHPETON ARPT FAIR 70 63 78 S5 29.68R  

 
 
***** WEATHER ACROSS CENTRAL AND WESTERN NORTH DAKOTA *****  
 
CITY SKY/WX TMP DP RH WIND PRES REMARKS  
JAMESTOWN FAIR 66 64 93 S7 29.65R  
BISMARCK LGT RAIN 68 65 90 NW8 29.70R  
MINOT FAIR 69 53 56 W12 29.63R  
MINOT AFB FAIR 60 55 84 W10 29.63R  
GARRISON N/A 64 62 93 CALM 29.66S  
WILLISTON FAIR 60 47 61 W10 29.72R  
DICKINSON FAIR 62 56 80 NW7 29.72R  
HETTINGER MOCLDY 65 63 93 MISG 29.74S  

 
 
***** OTHER OBSERVATIONS NORTHEAST NORTH DAKOTA *****  
 
CITY SKY/WX TMP DP RH WIND PRES REMARKS  
WALHALLA FAIR 66 66 100 W5 29.59R  
LANGDON FAIR N/A N/A N/A SW6 29.63R  
CAVALIER FAIR 61 57 88 CALM 29.59R  
GRAFTON FAIR 64 61 88 SW8 29.60R  
CANDO FAIR 66 66 100 SW6G15 29.64R  
FORT TOTTEN N/A 68 64 86 SW5 29.95  
ROLLA FAIR 61 57 88 SW6 29.63S  
RUGBY FAIR 63 63 100 W6 29.62R  
***** THE ABOVE OBSERVATIONS ARE NON NWS ARE NOT QUALITY  
CONTROLLED AND MAY MIS-REPORT RAIN FOR SNOW...  

 
 
***** OTHER OBSERVATIONS SOUTHEAST NORTH DAKOTA *****  
 
CITY SKY/WX TMP DP RH WIND PRES REMARKS  
COOPERSTOWN FAIR 64 64 100 S7 29.65S  
VALLEY CITY FAIR 66 66 100 S8 29.67S  
OAKES PTSUNNY 72 64 78 E9 29.65F  
GWINNER N/A 73 72 94 CALM 29.67R  
SHEYENNE NWR N/A 66 65 95 S2 29.95S  
BUFFALO N/A 69 64 86 W8 N/A  
WYNDMERE NOT AVBL  
***** THE ABOVE OBSERVATIONS ARE NON NWS ARE NOT QUALITY  
CONTROLLED AND MAY MIS-REPORT RAIN FOR SNOW...  

 
 
***** WEATHER ACROSS NORTHERN MINNESOTA *****  
 
CITY SKY/WX TMP DP RH WIND PRES REMARKS  
FLAG ISLAND N/A 64 57 77 SW10 29.57F  
WARROAD FAIR 61 57 88 S6 29.60F  
ROSEAU FAIR 61 55 82 CALM 29.60S  
HALLOCK FAIR 59 57 94 SE6 29.58S  
THF RVR FALLS FAIR 62 59 90 S8 29.64F  
HALSTAD NOT AVBL  
FOSSTON FAIR 59 57 94 S6 29.67R  
BAUDETTE FAIR 61 56 83 S7 29.62R  
WASKISH N/A 63 61 94 CALM 29.64F  
CROOKSTON FAIR 64 64 100 S6 29.63R  

 
***** WEATHER ACROSS CENTRAL AND WEST MINNESOTA *****  
 
CITY SKY/WX TMP DP RH WIND PRES REMARKS  
BEMIDJI FAIR 60 58 94 S5 29.67S  
PARK RAPIDS FAIR 63 58 83 CALM 29.69F  
WADENA FAIR 61 61 100 CALM 29.70S  
DETROIT LAKES FAIR 63 61 94 S3 29.71R  
MOORHEAD FAIR 66 63 88 SE5 29.65S  
FERGUS FALLS FAIR 70 64 83 SE5 29.68R  
ELBOW LAKE NOT AVBL  
MORRIS MN FAIR 70 70 100 E3 29.64S  
STAPLES FAIR 63 61 94 CALM 29.70F  
WHEATON FAIR 70 66 88 E5 29.68  

 
***** WEATHER ELSEWHERE ACROSS MINNESOTA *****  
 
CITY SKY/WX TMP DP RH WIND PRES REMARKS  
DULUTH FAIR 71 57 61 NW8 29.70R  
INTRNTL FALLS FAIR 63 62 97 SW7 29.62R  
ELY FAIR 64 63 94 SW6 29.68S  
CLOQUET FAIR 63 59 88 SW3 29.71S  
BRAINERD FAIR 65 62 90 S3 29.71S FOG  
HIBBING FOG 53 53 100 CALM 29.69S VSB 3/4  
ALEXANDRIA FAIR 73 67 81 SE6 29.72S  
SAINT CLOUD FAIR 70 68 93 CALM 29.70R  
MINNEAPOLIS FAIR 74 69 85 E3 29.69R  

 
 
***** WEATHER ACROSS SOUTH DAKOTA *****  
 
CITY SKY/WX TMP DP RH WIND PRES REMARKS  
SIOUX FALLS FAIR 74 72 93 E6 29.67F  
BROOKINGS FAIR 72 71 97 SE3 29.70S  
WATERTOWN FAIR 72 69 90 SE6 29.68R  
HURON FAIR 75 72 90 SE9 29.62F  
SISSETON N/A 70 70 100 SE5 29.65F  
ABERDEEN FAIR 73 70 90 E6 29.64R  
MITCHELL FAIR 76 74 93 E9 29.61F FOG  
PIERRE FAIR 75 72 90 SE12 29.54F  
MOBRIDGE MOCLDY 73 62 68 E13G23 29.59F  
RAPID CITY MOCLDY 71 70 96 N15G21 29.72R  

 
 
***** SOME WEATHER IN NEARBY STATES *****  
 
CITY SKY/WX TMP DP RH WIND PRES REMARKS  
GLASGOW MT FAIR 54 39 57 W6 29.77S  
GREAT FALLS MT FAIR 46 31 55 SW8 29.86S  
CHEYENNE WY FAIR 68 28 22 W10 29.99S  
SCOTTSBLUFF NE FAIR 59 55 87 CALM 29.81S  
OMAHA NE FAIR 82 73 74 S10 29.71S  
DES MOINES IA FAIR 82 72 71 SW10 29.74R  
DAVENPORT IA FAIR 83 72 69 SW10 29.80R  
CHICAGO IL CLOUDY 81 75 82 SW13 29.80R  
EAU CLAIRE WI FAIR 69 67 93 CALM 29.70R  
LA CROSSE WI LGT RAIN 74 69 85 S9 29.72R  

 
 
***** SOME NATIONAL WEATHER *****  
 
CITY SKY/WX TMP DP RH WIND PRES REMARKS  
LA GUARDIA NY CLOUDY 71 67 87 NE5 29.90S  
RALEIGH NC MOCLDY 74 71 91 CALM 29.98R  
ATLANTA GA MOCLDY 76 71 85 W8 30.06R  
NEW ORLEANS LA MOCLDY 79 75 87 CALM 30.02R  
OKLAHOMA CITY FAIR 78 70 76 S14 29.88S  
ALBUQUERQUE NM FAIR 72 45 37 SE7 30.03S  
SALT LAKE CITY FAIR 84 36 18 S15G23 29.85R  
LOS ANGELES CA CLOUDY 62 58 86 W5 29.93S  
BOISE ID FAIR 63 36 36 W8 29.89R  
SEATTLE WA MOCLDY 56 51 84 CALM 30.08S  

 
 
*** WEATHER ACROSS MANITOBA...SASKATCHEWAN AND ONTARIO ***  
***ONTARIO***  
 
CITY SKY/WX TMP DP RH WIND PRES REMARKS  
GERALDTON MOCLDY 63 61 94 VRB2 29.53F  
THUNDER BAY PTCLDY 59 59 100 W6 29.58R  
SIOUX LOOKOUT PTCLDY 63 61 94 SW6 29.54R  
TORONTO PTCLDY 73 70 88 S8 29.79R  
BIG TROUT LK CLOUDY 59 59 100 NW3 29.45S  
PICKLE LAKE NOT AVBL  
DRYDEN CLEAR 61 61 100 SW7 29.56R  
KENORA CLEAR 63 61 94 SW8 29.58R  

 
*** MANITOBA***  
 
CITY SKY/WX TMP DP RH WIND PRES REMARKS  
BRANDON PTCLDY 54 52 94 SW9 29.58R  
DAUPHIN CLEAR 54 54 100 W8 29.51F  
ISLAND LAKE NOT AVBL  
PILOT MOUND N/A 55 55 100 S7 N/A  
THE PAS LGT RAIN 59 57 94 S6 29.44F  
THOMPSON PTCLDY 52 50 93 NE5 29.48S  
WINNIPEG CLEAR 63 57 82 SW7 29.53F  
LYNN LAKE CLEAR 57 55 94 NE10 29.52R  
CHURCHILL MOCLDY 46 46 100 NE12G20 29.61R  
GILLAM FOG 52 50 93 NE12G20 29.51R VSB 1/4  

 
***SASKATCHEWAN***  
 
CITY SKY/WX TMP DP RH WIND PRES REMARKS  
ESTEVAN CLEAR 52 50 93 W9 29.66R  
KINDERSLEY LGT RAIN 50 50 100 W35G48 29.60F  
LLOYDMINSTER LGT RAIN 54 54 100 W13 29.52R  
PRINCE ALBERT CLOUDY 54 54 100 SW6 29.49R  
REGINA MOCLDY 52 48 87 W10 29.66R  
YORKTON CLEAR 54 50 87 SW12 29.57S  
 
CLICK HERE TO GO TO PREVIOUS BULLETINS.

The Nexlab ND Page
The Nexlab MN Page Main Text Page